sat.trackr.live / text

‹ back to catalog

STARLINK-30862

NORAD 59032 · 2024-038K

PAYLOAD ACTIVE UNKNOWN

§ Identity

Operator
Country
US
Launch date
2024-02-25
Launch site
AFETR
Launch vehicle
Mass (kg)
RCS (m²)

Purposes: comms

External: N2YO · Heavens-Above · Gunter

§ Orbital elements

Epoch: 2026-09-19T07:06:42.045408Z

Period
94.27 min
Inclination
43.0041°
Eccentricity
0.0001547
Mean motion
15.27577722 rev/d
Perigee alt
482.0 km
Apogee alt
484.1 km
Semi-major
6,861.2 km
B*
4.5818e-5
RAAN
2.7910°
Arg perigee
272.5384°
Mean anomaly
87.5291°
Rev number
14,438

§ Raw data

STARLINK-308621 59032U 24038K   26262.29631997  .00000999  00000+0  45818-4 0  99962 59032  43.0041   2.7910 0001547 272.5384  87.5291 15.27577722144387

JSON: /api/v1/satellites/59032 · /tle

For live sub-satellite position, see the globe view (requires WebGL).

§ Visibility from observer

Set your observer location to see the next 7 days of passes ≥ 10°. The values pass through the URL so the page stays shareable.

No JS? Fill the form by hand. The geolocation button needs JavaScript.